EA5JUX Weather Reports


time (UTC)temp
C
wind
direction
speed
KPH
gust
KPH
rain 1hr
cm
rain 24hr
cm
rain mn
cm
humidity
%
barometer
mb
20260507041734 18 90 8.0 17.7 0.00 0.00 0.00 80 1009.1
20260507031724 18 68 12.9 14.5 0.00 0.00 0.00 80 1009.2
20260507030232 17 45 6.4 14.5 0.00 0.00 0.00 80 1009.4
20260507022227 18 90 8.0 12.9 0.00 0.00 0.00 80 1009.4
20260507020230 17 68 11.3 17.7 0.00 0.00 0.00 79 1009.7
20260507015736 18 68 6.4 17.7 0.00 0.00 0.00 80 1009.8
20260507012233 18 68 6.4 12.9 0.00 0.00 0.00 79 1010.3
20260507002733 18 68 8.0 14.5 0.00 0.00 0.00 80 1010.1
20260507001733 17 68 6.4 11.3 0.00 0.00 0.00 81 1010.2
20260507000226 17 45 6.4 6.4 0.00 0.00 0.00 81 1010.0
20260506221227 16 135 0.0 3.2 0.00 0.00 0.00 80 1010.6
20260506213228 17 113 0.0 3.2 0.00 0.00 0.00 80 1010.9
20260506212226 17 203 0.0 3.2 0.00 0.00 0.00 79 1011.0
20260506210229 17 135 0.0 3.2 0.00 0.00 0.00 79 1010.9
20260506205234 17 113 1.6 6.4 0.00 0.00 0.00 78 1010.8
20260506202236 17 135 0.0 6.4 0.00 0.00 0.00 78 1010.9
20260506194736 17 90 0.0 6.4 0.00 0.00 0.00 78 1010.2
20260506192725 17 113 3.2 11.3 0.00 0.00 0.00 77 1010.0
20260506190225 17 113 3.2 11.3 0.00 0.00 0.00 77 1009.8
20260506182229 18 90 6.4 17.7 0.00 0.00 0.00 75 1009.3
20260506181226 18 135 6.4 17.7 0.00 0.00 0.00 75 1009.3
20260506180735 18 135 6.4 17.7 0.00 0.00 0.00 75 1009.4
20260506174739 18 113 4.8 14.5 0.00 0.00 0.00 75 1009.3
20260506172229 18 113 6.4 17.7 0.00 0.00 0.00 75 1009.4
20260506170225 18 90 9.7 22.5 0.00 0.00 0.00 75 1009.3
20260506162725 19 68 11.3 22.5 0.00 0.00 0.00 73 1009.5
20260506161232 19 90 12.9 22.5 0.00 0.00 0.00 73 1009.5
20260506150732 20 68 11.3 25.7 0.00 0.00 0.00 72 1009.5
20260506141728 20 68 11.3 24.1 0.00 0.00 0.00 72 1009.5
20260506133236 20 45 12.9 20.9 0.00 0.00 0.00 71 1009.6
20260506124231 21 68 16.1 24.1 0.00 0.00 0.00 70 1010.3
20260506123738 21 68 12.9 24.1 0.00 0.00 0.00 70 1010.3
20260506115739 21 90 11.3 24.1 0.00 0.00 0.00 70 1010.4
20260506114737 20 90 9.7 22.5 0.00 0.00 0.00 73 1010.2
20260506111225 21 45 12.9 22.5 0.00 0.00 0.00 71 1010.3
20260506101228 21 45 14.5 27.4 0.00 0.00 0.00 77 1010.3
20260506100237 20 68 12.9 29.0 0.00 0.00 0.00 76 1010.5
20260506094734 20 45 8.0 25.7 0.00 0.00 0.00 76 1010.5
20260506094225 20 45 12.9 24.1 0.00 0.00 0.00 77 1010.6
20260506093230 19 23 14.5 25.7 0.00 0.00 0.00 76 1010.5
20260506083237 20 45 11.3 22.5 0.00 0.00 0.00 76 1010.1
20260506082227 20 45 9.7 22.5 0.00 0.00 0.00 76 1010.0
20260506073233 20 68 11.3 14.5 0.00 0.00 0.00 74 1010.2
20260506061228 18 45 9.7 20.9 0.00 0.00 0.00 78 1009.9
20260506051227 17 45 12.9 17.7 0.00 0.00 0.00 86 1009.5